Latest Weather Observations for Bickley

IDW60901

Issued at 1:25 pm WST Wednesday 3 September 2014 (issued every 10 minutes, with the page automatically refreshed every 10 minutes)

About weather observations | Map of Perth area stations | Latest observations for Perth area | Other Formats
Station Details ID: 009240 Name: BICKLEY Lat: -32.01 Lon: 116.14 Height: 384.0 m
Data from the previous 72 hours. | See also: Recent months at Bickley
Date/Time
WST
Tmp

°C
App
Tmp
°C
Dew
Point
°C
Rel
Hum
%
Delta-T

°C
Wind Press
QNH
hPa
Press
MSL
hPa
Rain
since
9 am
mm
Dir
 
Spd
km/h
Gust
km/h
Spd
kts
Gust
kts
03/01:00pm 16.8 - 10.6 67 3.4 - - - - - - - 0.0
03/12:30pm 16.7 - 10.3 66 3.5 - - - - - - - 0.0
03/12:00pm 16.9 - 11.0 68 3.2 - - - - - - - 0.0
03/11:30am 16.4 - 11.1 71 2.9 - - - - - - - 0.0
03/11:00am 15.4 - 10.8 74 2.5 - - - - - - - 0.0
03/10:30am 14.9 - 10.7 76 2.3 - - - - - - - 0.0
03/10:00am 15.2 - 11.6 79 2.0 - - - - - - - 0.0
03/09:30am 13.8 - 11.1 84 1.5 - - - - - - - 0.0
03/09:00am 13.1 - 11.8 92 0.7 - - - - - - - 0.0
03/08:30am 11.8 - 11.0 95 0.4 - - - - - - - 0.0
03/08:00am 12.0 - 11.2 95 0.4 - - - - - - - 0.0
03/07:30am 11.1 - 10.9 99 0.1 - - - - - - - 0.0
03/07:00am 10.3 - 10.1 99 0.1 - - - - - - - 0.0
03/06:30am 10.3 - 10.1 99 0.1 - - - - - - - 0.0
03/06:00am 10.6 - 10.4 99 0.1 - - - - - - - 0.0
03/05:30am 10.5 - 10.3 99 0.1 - - - - - - - 0.0
03/05:00am 10.7 - 10.5 99 0.1 - - - - - - - 0.0
03/04:30am 10.7 - 10.5 99 0.1 - - - - - - - 0.0
03/04:00am 11.1 - 10.9 99 0.1 - - - - - - - 0.0
03/03:30am 11.5 - 11.3 99 0.1 - - - - - - - 0.0
03/03:00am 11.6 - 11.4 99 0.1 - - - - - - - 0.0
03/02:30am 11.7 - 11.5 99 0.1 - - - - - - - 0.0
03/02:00am 11.8 - 11.5 98 0.2 - - - - - - - 0.0
03/01:30am 12.0 - 11.5 97 0.3 - - - - - - - 0.0
03/01:00am 12.3 - 11.5 95 0.4 - - - - - - - 0.0
03/12:30am 12.6 - 11.5 93 0.6 - - - - - - - 0.0
03/12:00am 12.5 - 11.2 92 0.7 - - - - - - - 0.0
 
Date/Time
WST
Tmp

°C
App
Tmp
°C
Dew
Point
°C
Rel
Hum
%
Delta-T

°C
Wind Press
QNH
hPa
Press
MSL
hPa
Rain
since
9 am
mm
Dir
 
Spd
km/h
Gust
km/h
Spd
kts
Gust
kts
02/11:30pm 12.9 - 11.3 90 0.9 - - - - - - - 0.0
02/11:00pm 12.9 - 11.3 90 0.9 - - - - - - - 0.0
02/10:30pm 13.1 - 11.5 90 0.9 - - - - - - - 0.0
02/10:00pm 13.3 - 11.5 89 1.0 - - - - - - - 0.0
02/09:30pm 13.2 - 11.9 92 0.7 - - - - - - - 0.0
02/09:00pm 13.3 - 11.9 91 0.8 - - - - - - - 0.0
02/08:30pm 13.9 - 12.1 89 1.0 - - - - - - - 0.0
02/08:00pm 13.9 - 11.6 86 1.3 - - - - - - - 0.0
02/07:30pm 14.2 - 11.9 86 1.3 - - - - - - - 0.0
02/07:00pm 14.3 - 12.0 86 1.3 - - - - - - - 0.0
02/06:30pm 14.4 - 12.6 89 1.0 - - - - - - - 0.0
02/06:00pm 14.7 - 12.4 86 1.3 - - - - - - - 0.0
02/05:30pm 15.1 - 12.6 85 1.4 - - - - - - - 0.0
02/05:00pm 15.4 - 12.5 83 1.6 - - - - - - - 0.0
02/04:30pm 15.9 - 12.8 82 1.7 - - - - - - - 0.0
02/04:00pm 16.3 - 12.3 77 2.2 - - - - - - - 0.0
02/03:30pm 17.4 - 12.9 75 2.6 - - - - - - - 0.0
02/03:00pm 17.5 - 12.2 71 3.0 - - - - - - - 0.0
02/02:30pm 17.7 - 11.3 66 3.5 - - - - - - - 0.0
02/02:00pm 18.2 - 12.4 69 3.3 - - - - - - - 0.0
02/01:30pm 17.7 - 11.7 68 3.3 - - - - - - - 0.0
02/01:00pm 17.5 - 12.0 70 3.1 - - - - - - - 0.0
02/12:30pm 16.9 - 12.6 76 2.4 - - - - - - - 0.0
02/12:00pm 16.3 - 11.9 75 2.4 - - - - - - - 0.0
02/11:30am 15.4 - 11.4 77 2.2 - - - - - - - 0.0
02/11:00am 14.4 - 13.0 91 0.8 - - - - - - - 0.0
02/10:30am 14.1 - 11.1 82 1.6 - - - - - - - 0.0
02/10:00am 14.2 - 9.8 75 2.3 - - - - - - - 0.0
02/09:30am 13.7 - 9.7 77 2.1 - - - - - - - 0.0
02/09:00am 11.7 - 8.9 83 1.4 - - - - - - - 0.0
02/08:30am 11.6 - 8.5 81 1.6 - - - - - - - 0.0
02/08:00am 10.7 - 8.1 84 1.3 - - - - - - - 0.0
02/07:30am 10.7 - 7.9 83 1.4 - - - - - - - 0.0
02/07:00am 10.3 - 7.7 84 1.3 - - - - - - - 0.0
02/06:30am 10.1 - 7.3 83 1.4 - - - - - - - 0.0
02/06:00am 9.7 - 7.3 85 1.2 - - - - - - - 0.0
02/05:30am 10.0 - 7.1 82 1.4 - - - - - - - 0.0
02/05:00am 10.2 - 7.6 84 1.3 - - - - - - - 0.0
02/04:30am 10.3 - 7.4 82 1.4 - - - - - - - 0.0
02/04:00am 10.4 - 7.5 82 1.4 - - - - - - - 0.0
02/03:30am 10.3 - 7.4 82 1.4 - - - - - - - 0.0
02/03:00am 10.3 - 7.4 82 1.4 - - - - - - - 0.0
02/02:30am 10.5 - 7.6 82 1.4 - - - - - - - 0.0
02/02:00am 10.4 - 7.3 81 1.5 - - - - - - - 0.0
02/01:30am 10.0 - 7.6 85 1.2 - - - - - - - 0.0
02/01:00am 10.5 - 6.8 78 1.8 - - - - - - - 0.0
02/12:30am 10.6 - 6.6 76 1.9 - - - - - - - 0.0
02/12:00am 10.7 - 6.5 75 2.0 - - - - - - - 0.0
 
Date/Time
WST
Tmp

°C
App
Tmp
°C
Dew
Point
°C
Rel
Hum
%
Delta-T

°C
Wind Press
QNH
hPa
Press
MSL
hPa
Rain
since
9 am
mm
Dir
 
Spd
km/h
Gust
km/h
Spd
kts
Gust
kts
01/11:30pm 11.0 - 6.4 73 2.2 - - - - - - - 0.0
01/11:00pm 10.7 - 5.9 72 2.3 - - - - - - - 0.0
01/10:30pm 11.0 - 6.4 73 2.2 - - - - - - - 0.0
01/10:00pm 10.9 - 6.5 74 2.1 - - - - - - - 0.0
01/09:30pm 11.1 - 6.5 73 2.2 - - - - - - - 0.0
01/09:00pm 10.9 - 6.8 76 2.0 - - - - - - - 0.0
01/08:30pm 11.0 - 6.6 74 2.1 - - - - - - - 0.0
01/08:00pm 11.2 - 6.9 75 2.1 - - - - - - - 0.0
01/07:30pm 11.7 - 6.8 72 2.4 - - - - - - - 0.0
01/07:00pm 11.8 - 7.3 74 2.2 - - - - - - - 0.0
01/06:30pm 11.3 - 8.0 80 1.6 - - - - - - - 0.0
01/06:00pm 11.3 - 8.5 83 1.4 - - - - - - - 0.0
01/05:30pm 12.5 - 8.2 75 2.2 - - - - - - - 0.0
01/05:00pm 13.4 - 7.2 66 3.1 - - - - - - - 0.0
01/04:30pm 14.2 - 7.7 65 3.3 - - - - - - - 0.0
01/04:00pm 15.3 - 8.1 62 3.7 - - - - - - - 0.0
01/03:30pm 14.7 - 8.4 66 3.2 - - - - - - - 0.0
01/03:00pm 15.2 - 7.7 61 3.8 - - - - - - - 0.0
01/02:30pm 14.9 - 7.9 63 3.6 - - - - - - - 0.0
01/02:00pm 14.9 - 8.2 64 3.4 - - - - - - - 0.0
01/01:30pm 14.8 - 8.3 65 3.3 - - - - - - - 0.0
01/01:00pm 13.9 - 7.9 67 3.0 - - - - - - - 0.0
01/12:30pm 14.0 - 8.2 68 3.0 - - - - - - - 0.0
01/12:00pm 13.9 - 7.9 67 3.0 - - - - - - - 0.0
01/11:30am 13.3 - 7.5 68 2.9 - - - - - - - 0.0
01/11:00am 12.7 - 7.4 70 2.6 - - - - - - - 0.0
01/10:30am 12.6 - 8.3 75 2.2 - - - - - - - 0.0
01/10:00am 11.8 - 7.1 73 2.3 - - - - - - - 0.0
01/09:30am 11.0 - 7.9 81 1.5 - - - - - - - 0.0
01/09:00am 9.7 - 6.6 81 1.5 - - - - - - - 0.0
01/08:30am 9.1 - 7.1 87 1.0 - - - - - - - 0.0
01/08:00am 7.6 - 6.7 94 0.4 - - - - - - - 0.0
01/07:30am 6.3 - 6.2 99 0.0 - - - - - - - 0.0
01/07:00am 5.6 - 5.5 99 0.0 - - - - - - - 0.0
01/06:30am 5.5 - 5.4 99 0.0 - - - - - - - 0.0
01/06:00am 5.6 - 5.5 99 0.0 - - - - - - - 0.0
01/05:30am 5.7 - 5.6 99 0.0 - - - - - - - 0.0
01/05:00am 6.0 - 5.7 98 0.1 - - - - - - - 0.0
01/04:30am 6.3 - 5.9 97 0.2 - - - - - - - 0.0
01/04:00am 6.5 - 5.9 96 0.3 - - - - - - - 0.0
01/03:30am 6.9 - 6.2 95 0.3 - - - - - - - 0.0
01/03:00am 7.0 - 6.1 94 0.4 - - - - - - - 0.0
01/02:30am 7.2 - 6.1 93 0.5 - - - - - - - 0.0
01/02:00am 7.7 - 6.3 91 0.7 - - - - - - - 0.0
01/01:30am 7.6 - 6.2 91 0.7 - - - - - - - 0.0
01/01:00am 8.0 - 6.0 87 0.9 - - - - - - - 0.0
01/12:30am 8.2 - 6.2 87 0.9 - - - - - - - 0.0
01/12:00am 8.0 - 6.5 90 0.7 - - - - - - - 0.0
 
Date/Time
WST
Tmp

°C
App
Tmp
°C
Dew
Point
°C
Rel
Hum
%
Delta-T

°C
Wind Press
QNH
hPa
Press
MSL
hPa
Rain
since
9 am
mm
Dir
 
Spd
km/h
Gust
km/h
Spd
kts
Gust
kts
31/11:30pm 8.5 - 6.3 86 1.0 - - - - - - - 0.0
31/11:00pm 8.2 - 6.2 87 0.9 - - - - - - - 0.0
31/10:30pm 8.5 - 6.1 85 1.1 - - - - - - - 0.0
31/10:00pm 8.6 - 6.2 85 1.1 - - - - - - - 0.0
31/09:30pm 8.9 - 6.0 82 1.4 - - - - - - - 0.0
31/09:00pm 9.0 - 5.9 81 1.4 - - - - - - - 0.0
31/08:30pm 9.2 - 5.9 80 1.5 - - - - - - - 0.0
31/08:00pm 9.6 - 6.0 78 1.7 - - - - - - - 0.0
31/07:30pm 9.9 - 7.0 82 1.4 - - - - - - - 0.0
31/07:00pm 10.6 - 6.7 77 1.9 - - - - - - - 0.0
31/06:30pm 11.0 - 7.3 78 1.8 - - - - - - - 0.0
31/06:00pm 11.4 - 7.3 76 2.0 - - - - - - - 0.0
31/05:30pm 12.2 - 7.5 73 2.3 - - - - - - - 0.0
31/05:00pm 13.3 - 8.4 72 2.5 - - - - - - - 0.0
31/04:30pm 13.7 - 7.9 68 2.9 - - - - - - - 0.0
31/04:00pm 14.6 - 8.8 68 3.0 - - - - - - - 0.0
31/03:30pm 14.6 - 8.3 66 3.2 - - - - - - - 0.0
31/03:00pm 14.0 - 8.6 70 2.8 - - - - - - - 0.0
31/02:30pm 14.1 - 8.5 69 2.9 - - - - - - - 0.0
31/02:00pm 14.6 - 7.6 63 3.5 - - - - - - - 0.0
31/01:30pm 14.1 - 8.1 67 3.1 - - - - - - - 0.0

Latest Capital City Observations: Canberra | Sydney | Melbourne | Brisbane | Adelaide | Perth | Hobart | Darwin

Other Formats:

Comma delimited format used in spreadsheet applications
http://www.bom.gov.au/fwo/IDW60901/IDW60901.95610.axf

JavaScript Object Notation format (JSON) in row-major order
http://www.bom.gov.au/fwo/IDW60901/IDW60901.95610.json